Regional Weather Roundup
Issued by NWS

Home | Current Version | Previous Version | Text Only | Print | Product List | Glossary On
Versions: 1 2 3 4 5 6 7 8 9 10 11 12 13 14 15 16 17 18 19 20 21 22 23 24 25 26 27 28 29 30 31 32 33 34 35 36 37 38 39 40 41 42 43 44 45 46 47 48 49 50
000
ASUS43 KFSD 150010
RWRSD

WEATHER ROUNDUP FOR SOUTH DAKOTA
NATIONAL WEATHER SERVICE SIOUX FALLS SD
700 PM CDT SUN SEP 14 2014

NOTE: "FAIR" INDICATES FEW OR NO CLOUDS BELOW 12,000 FEET WITH NO
SIGNIFICANT WEATHER AND/OR OBSTRUCTIONS TO VISIBILITY.


SDZ001>005-009-010-012>017-150100-
NORTHWEST AND NORTH CENTRAL SOUTH DAKOTA

CITY           SKY/WX    TMP DP  RH WIND       PRES   REMARKS
BUFFALO          N/A     56  36  47 E9        30.06R
FAITH            N/A     53  39  59 SE7       30.14R
MOBRIDGE       MOCLDY    57  37  47 NE6       30.12R
$$

SDZ012>016-024>037-041>051-057-063-072>074-150100-
SOUTHWEST AND SOUTH CENTRAL SOUTH DAKOTA

CITY           SKY/WX    TMP DP  RH WIND       PRES   REMARKS
RAPID CTY ARPT PTSUNNY   51  40  65 E6        30.12R
PIERRE         CLOUDY    55  39  54 NE6       30.12S
CUSTER         PTSUNNY   48  38  68 E6        30.12R
ELLSWORTH AFB  MOSUNNY   53  39  58 VRB6      30.12R
PHILIP         CLOUDY    53  39  59 E9        30.12R
PINE RIDGE     SUNNY     57  43  59 NE13G20   30.08R
WINNER         CLOUDY    55  42  61 NE13      30.10S
$$

SDZ004>011-016>023-039-040-150100-
NORTHEAST SOUTH DAKOTA

CITY           SKY/WX    TMP DP  RH WIND       PRES   REMARKS
ABERDEEN       PTCLDY    54  42  64 NE8       30.13R
WATERTOWN      CLOUDY    54  40  59 NW3       30.13R
SISSETON         N/A     55  42  61 NW7       30.12S
$$

SDZ017-020-022-023-036>040-048>070-150100-
SOUTHEAST SOUTH DAKOTA

CITY           SKY/WX    TMP DP  RH WIND       PRES   REMARKS
SIOUX FALLS    CLOUDY    58  46  64 NE10      30.11R
HURON          LGT RAIN  50  46  86 E5        30.15R FOG
CHAMBERLAIN    CLOUDY    53  43  69 NE8       30.11F
MITCHELL       CLOUDY    54  45  71 N6        30.13R
YANKTON        PTCLDY    63  52  67 NE5       30.09R
$$

ABBREVIATIONS USED IN REMARKS
   TC - TEMPERATURE IN CELSIUS
  WCI - WIND CHILL INDEX
   HX - HEAT INDEX
  VSB - VISIBILITY




USA.gov is the U.S. government's official web portal to all federal, state and local government web resources and services.